TimeCDT,TemperatureF,Dew PointF,Humidity,Sea Level PressureIn,VisibilityMPH,Wind Direction,Wind SpeedMPH,Gust SpeedMPH,PrecipitationIn,Events,Conditions,WindDirDegrees,DateUTC
12:15 AM,69.8,61.7,75,30.02,10.0,SSE,3.5,-,N/A,,Clear,160,2013-07-12 05:15:00
12:35 AM,69.4,61.3,75,30.03,10.0,SSE,5.8,-,N/A,,Clear,150,2013-07-12 05:35:00
12:55 AM,68.2,61.3,79,30.03,10.0,SSE,4.6,-,N/A,,Clear,160,2013-07-12 05:55:00
1:15 AM,67.6,61.3,80,30.03,10.0,South,3.5,-,N/A,,Clear,180,2013-07-12 06:15:00
1:35 AM,68.0,61.2,79,30.03,10.0,SSE,4.6,-,N/A,,Clear,160,2013-07-12 06:35:00
1:55 AM,67.5,61.0,80,30.02,10.0,SSE,4.6,-,N/A,,Clear,160,2013-07-12 06:55:00
2:15 AM,66.7,60.8,81,30.02,10.0,SSE,5.8,-,N/A,,Clear,160,2013-07-12 07:15:00
2:35 AM,66.7,60.8,81,30.02,10.0,SSE,5.8,-,N/A,,Clear,160,2013-07-12 07:35:00
2:55 AM,66.2,60.8,83,30.02,10.0,SSE,5.8,-,N/A,,Clear,160,2013-07-12 07:55:00
3:15 AM,66.7,61.0,82,30.01,10.0,SSE,5.8,-,N/A,,Clear,160,2013-07-12 08:15:00
3:35 AM,66.7,60.8,81,30.01,10.0,SSE,6.9,-,N/A,,Clear,160,2013-07-12 08:35:00
3:55 AM,67.1,60.3,79,30.01,10.0,SSE,5.8,-,N/A,,Clear,160,2013-07-12 08:55:00
4:15 AM,66.4,60.3,81,30.01,10.0,SSE,5.8,-,N/A,,Clear,150,2013-07-12 09:15:00
4:35 AM,66.4,60.3,81,30.01,10.0,SSE,4.6,-,N/A,,Clear,150,2013-07-12 09:35:00
4:55 AM,66.4,60.1,80,30.01,10.0,SSE,6.9,-,N/A,,Clear,160,2013-07-12 09:55:00
5:15 AM,66.4,59.9,80,30.01,10.0,SSE,6.9,-,N/A,,Clear,160,2013-07-12 10:15:00
5:35 AM,65.7,60.1,82,30.02,10.0,SSE,6.9,-,N/A,,Clear,160,2013-07-12 10:35:00
5:55 AM,65.8,60.3,82,30.02,10.0,SSE,6.9,-,N/A,,Clear,160,2013-07-12 10:55:00
6:15 AM,66.2,60.6,82,30.02,10.0,SSE,8.1,-,N/A,,Clear,160,2013-07-12 11:15:00
6:35 AM,66.7,60.8,81,30.02,10.0,SSE,10.4,-,N/A,,Clear,160,2013-07-12 11:35:00
6:55 AM,67.5,61.2,80,30.02,10.0,South,10.4,-,N/A,,Clear,170,2013-07-12 11:55:00
7:15 AM,68.7,61.3,77,30.02,10.0,SSE,11.5,-,N/A,,Clear,160,2013-07-12 12:15:00
7:35 AM,70.0,61.3,74,30.03,10.0,SSE,12.7,20.7,N/A,,Clear,160,2013-07-12 12:35:00
7:55 AM,71.2,61.7,72,30.03,10.0,SSE,12.7,18.4,N/A,,Clear,160,2013-07-12 12:55:00
8:15 AM,72.3,62.1,70,30.03,10.0,SSE,12.7,-,N/A,,Clear,160,2013-07-12 13:15:00
8:35 AM,73.4,62.1,68,30.03,10.0,SSE,15.0,21.9,N/A,,Clear,160,2013-07-12 13:35:00
8:55 AM,74.3,61.9,65,30.03,10.0,SSE,15.0,23.0,N/A,,Clear,160,2013-07-12 13:55:00
9:15 AM,75.2,62.1,64,30.03,10.0,SSE,16.1,-,N/A,,Clear,160,2013-07-12 14:15:00
9:35 AM,76.1,62.1,62,30.03,10.0,SSE,15.0,23.0,N/A,,Clear,160,2013-07-12 14:35:00
9:55 AM,77.2,63.0,61,30.03,10.0,SSE,13.8,-,N/A,,Clear,160,2013-07-12 14:55:00
10:15 AM,77.9,63.7,61,30.02,10.0,SSE,11.5,-,N/A,,Clear,160,2013-07-12 15:15:00
10:35 AM,78.8,63.0,58,30.02,10.0,SSE,16.1,24.2,N/A,,Clear,150,2013-07-12 15:35:00
10:55 AM,80.1,63.5,57,30.02,10.0,SSE,15.0,20.7,N/A,,Clear,150,2013-07-12 15:55:00
11:15 AM,79.3,63.3,58,30.02,10.0,SSE,15.0,23.0,N/A,,Clear,150,2013-07-12 16:15:00
11:35 AM,81.9,65.3,57,30.02,10.0,South,16.1,-,N/A,,Clear,170,2013-07-12 16:35:00
11:55 AM,82.0,64.4,55,30.02,10.0,South,19.6,-,N/A,,Clear,170,2013-07-12 16:55:00
12:15 PM,82.6,64.9,55,30.01,10.0,SSE,16.1,23.0,N/A,,Clear,150,2013-07-12 17:15:00
12:35 PM,82.6,66.0,57,30.00,10.0,SE,15.0,18.4,N/A,,Clear,140,2013-07-12 17:35:00
12:55 PM,83.3,66.2,56,30.00,10.0,SSE,15.0,20.7,N/A,,Clear,150,2013-07-12 17:55:00
1:15 PM,83.8,66.2,55,30.00,10.0,SE,13.8,19.6,N/A,,Clear,140,2013-07-12 18:15:00
1:35 PM,84.6,66.9,55,29.99,10.0,SSE,16.1,21.9,N/A,,Clear,160,2013-07-12 18:35:00
1:55 PM,85.5,67.8,55,29.99,10.0,SSE,12.7,21.9,N/A,,Clear,150,2013-07-12 18:55:00
2:15 PM,85.8,67.6,54,29.98,10.0,SE,16.1,-,N/A,,Clear,140,2013-07-12 19:15:00
2:35 PM,86.0,68.0,55,29.98,10.0,SE,16.1,-,N/A,,Clear,140,2013-07-12 19:35:00
2:55 PM,86.9,68.4,54,29.99,10.0,SE,13.8,19.6,N/A,,Clear,140,2013-07-12 19:55:00
3:15 PM,87.3,68.7,54,29.98,10.0,SSE,15.0,19.6,N/A,,Clear,150,2013-07-12 20:15:00
3:35 PM,87.3,68.5,54,29.97,10.0,SE,17.3,21.9,N/A,,Clear,140,2013-07-12 20:35:00
3:55 PM,87.4,68.5,53,29.97,10.0,SSE,15.0,-,N/A,,Clear,150,2013-07-12 20:55:00
4:15 PM,87.6,68.5,53,29.97,10.0,SSE,12.7,-,N/A,,Clear,150,2013-07-12 21:15:00
4:35 PM,88.0,68.5,52,29.97,10.0,SSE,12.7,-,N/A,,Clear,160,2013-07-12 21:35:00
4:55 PM,87.4,68.2,53,29.97,10.0,SSE,13.8,23.0,N/A,,Clear,150,2013-07-12 21:55:00
5:15 PM,88.0,68.2,52,29.97,10.0,SSE,13.8,19.6,N/A,,Clear,150,2013-07-12 22:15:00
5:35 PM,87.8,68.5,53,29.96,10.0,SSE,17.3,21.9,N/A,,Clear,150,2013-07-12 22:35:00
5:55 PM,87.4,69.1,54,29.96,10.0,SSE,16.1,20.7,N/A,,Clear,150,2013-07-12 22:55:00
6:15 PM,86.9,68.4,54,29.96,10.0,SSE,12.7,-,N/A,,Clear,150,2013-07-12 23:15:00
6:35 PM,86.2,68.2,55,29.95,10.0,SE,15.0,-,N/A,,Clear,140,2013-07-12 23:35:00
6:55 PM,86.0,68.2,55,29.95,10.0,SSE,12.7,18.4,N/A,,Clear,150,2013-07-12 23:55:00
7:15 PM,85.3,68.2,56,29.95,10.0,SSE,9.2,17.3,N/A,,Clear,150,2013-07-13 00:15:00
7:35 PM,84.4,67.8,57,29.95,10.0,SSE,13.8,19.6,N/A,,Clear,150,2013-07-13 00:35:00
7:55 PM,83.7,67.1,57,29.95,10.0,SSE,13.8,-,N/A,,Clear,150,2013-07-13 00:55:00
8:15 PM,82.6,66.6,58,29.95,10.0,SSE,11.5,17.3,N/A,,Clear,150,2013-07-13 01:15:00
8:35 PM,82.0,66.0,58,29.95,10.0,SE,12.7,19.6,N/A,,Clear,140,2013-07-13 01:35:00
8:55 PM,81.5,65.5,58,29.95,10.0,SE,12.7,18.4,N/A,,Clear,140,2013-07-13 01:55:00
9:15 PM,80.6,65.3,59,29.95,10.0,SE,12.7,17.3,N/A,,Clear,140,2013-07-13 02:15:00
9:35 PM,80.1,64.8,59,29.96,10.0,SSE,11.5,-,N/A,,Clear,150,2013-07-13 02:35:00
9:55 PM,79.7,63.7,58,29.96,10.0,SSE,12.7,-,N/A,,Clear,150,2013-07-13 02:55:00
10:15 PM,79.2,62.8,57,29.97,10.0,SSE,12.7,18.4,N/A,,Clear,150,2013-07-13 03:15:00
10:35 PM,78.8,62.1,56,29.97,10.0,SSE,11.5,18.4,N/A,,Clear,150,2013-07-13 03:35:00
10:55 PM,78.8,61.3,55,29.96,10.0,SSE,11.5,18.4,N/A,,Clear,150,2013-07-13 03:55:00
11:15 PM,78.1,61.3,56,29.97,10.0,SSE,11.5,16.1,N/A,,Clear,150,2013-07-13 04:15:00
11:35 PM,77.4,61.3,58,29.96,10.0,SSE,10.4,-,N/A,,Clear,160,2013-07-13 04:35:00
11:55 PM,77.0,61.3,58,29.97,10.0,SSE,10.4,-,N/A,,Clear,160,2013-07-13 04:55:00